Location: Home
(42.5358°N, 72.7383°W)
Time: 10:56:16
(UTC-05:00)

S-56A Canister/Altair - Pass Details

Date: 01 December 2021
Orbit: 634 x 2499 km, 38.9° (Epoch: 22 January)

Event Time Altitude Azimuth Distance (km) Brightness Sun altitude
Rises 01:40:40 0° 249° (WSW) 4,576 - -57.4°
Reaches altitude 10° 01:44:16 10° 246° (WSW) 3,292 - -56.9°
Maximum altitude 01:51:44 56° 171° (S) 1,118 - -55.6°
Drops below altitude 10° 01:56:55 10° 94° (E) 2,302 - -54.8°
Sets 01:59:03 0° 89° (E) 3,106 - -54.4°
